Location: Newark
(34.0131°N, 4.3314°W)
Time: 14:08:38
(UTC+00:00)

Courier 1B Rocket - Visible Passes

Search period start: 16 October 2019 00:00
Search period end: 26 October 2019 00:00
Orbit: 920 x 1202 km, 28.2° (Epoch: 15 October)

Date Brightness Start Highest point End Pass type
(mag) Time Alt. Az. Time Alt. Az. Time Alt. Az.
16 Oct 6.9 03:32:17 18° SE 03:32:17 18° SE 03:35:43 10° ESE visible
16 Oct 5.9 05:18:40 11° SW 05:24:12 41° SSE 05:30:19 10° E visible
17 Oct 6.0 04:21:38 28° SSW 04:23:22 33° SSE 04:29:01 10° E visible
18 Oct 6.7 03:24:34 22° SE 03:24:34 22° SE 03:27:38 10° ESE visible
18 Oct 5.6 05:10:57 18° WSW 05:15:25 47° S 05:21:36 10° E visible
19 Oct 5.6 04:13:52 39° S 04:14:33 40° SSE 04:20:27 10° E visible
19 Oct 5.5 06:01:30 10° WSW 06:07:34 52° S 06:13:56 10° ESE visible
20 Oct 6.8 03:16:44 22° ESE 03:16:44 22° ESE 03:19:15 10° E visible
20 Oct 5.4 05:03:06 24° WSW 05:06:40 51° S 05:12:51 10° ESE visible
21 Oct 5.4 04:05:58 46° SSE 04:05:58 46° SSE 04:11:47 10° E visible
21 Oct 5.5 05:52:50 10° W 05:58:50 49° S 06:05:03 10° ESE visible
22 Oct 7.0 03:08:48 20° ESE 03:08:48 20° ESE 03:10:44 10° E visible
22 Oct 5.3 04:55:10 30° WSW 04:57:56 51° S 05:04:04 10° ESE visible
23 Oct 5.5 03:58:01 46° SSE 03:58:01 46° SSE 04:03:05 10° ESE visible
23 Oct 5.6 05:44:23 11° W 05:50:05 43° S 05:56:05 10° ESE visible
24 Oct 7.2 03:00:50 16° ESE 03:00:50 16° ESE 03:02:06 10° E visible
24 Oct 5.3 04:47:13 36° SW 04:49:12 48° S 04:55:14 10° ESE visible
25 Oct 5.8 03:50:03 40° SE 03:50:03 40° SE 03:54:21 10° ESE visible
25 Oct 5.8 05:36:26 13° WSW 05:41:18 35° SSW 05:46:59 10° SE visible
